Location: Kalberh�ni
(46.4610°N, 7.2453°E)
Time: 18:34:05
(UTC+00:00)

Meteor 2-1 Rocket - Pass Details

Date: 01 November 2021
Orbit: 830 x 906 km, 81.3° (Epoch: 28 November)

Event Time Altitude Azimuth Distance (km) Brightness Sun altitude
Rises 05:26:21 0° 346° (NNW) 3,394 7.1 -8.5°
Reaches altitude 10° 05:28:46 10° 344° (NNW) 2,462 6.3 -8.1°
Maximum altitude 05:34:17 66° 263° (W) 922 4.2 -7.1°
Drops below altitude 10° 05:39:51 10° 182° (S) 2,486 6.8 -6.2°
Sets 05:42:18 0° 180° (S) 3,430 7.6 -5.8°
